SKYSAT-C10

Last updated on Mon Sep 07 2026 00:02:46 GMT+0000 (Coordinated Universal Time)

1 42988U 17068B 26249.37096657 .00005789 00000+0 16791-3 0 9994 2 42988 97.4605 27.1405 0001524 87.3409 272.8009 15.35930477494814
UTC large
Height (km)
Speed (km/s)
/
Latitude / Longitude
Inclination (degrees)
Orbital Period (minutes)
Azimuth
Elevation
Range (km)
Doppler Factor

Next 0 passes for location: London (51.5072 / 0.1276)

No passes found over London.
SKYSAT-C10